Regional Weather Roundup
Issued by NWS

Home | Current Version | Previous Version | Text Only | Print | Product List | Glossary On
Versions: 1 2 3 4 5 6 7 8 9 10 11 12 13 14 15 16 17 18 19 20 21 22 23 24 25 26 27 28 29 30 31 32 33 34 35 36 37 38 39 40 41 42 43 44 45 46 47 48 49 50
000
ASUS44 KEWX 262011
RWRTX
SOUTH TEXAS REGIONAL WEATHER ROUNDUP
NATIONAL WEATHER SERVICE AUSTIN/SAN ANTONIO TX
300 PM CDT FRI AUG 26 2016

NOTE: "FAIR" INDICATED FEW OR NO CLOUDS BELOW 12,000 FEET WITH NO
SIGNIFICANT WEATHER AND/OR OBSTRUCTIONS TO VISIBILITY.

* - THESE STATIONS ARE NOT NWS OR FAA STATIONS...AND ARE NOT SUBJECT
    TO NWS AND FAA QUALITY CONTROL.

TXZ171-172-183>190-262100-
TEXAS HILL COUNTRY AND EDWARDS PLATEAU

CITY           SKY/WX    TMP DP  RH WIND       PRES   REMARKS
JUNCTION       SUNNY     91  61  36 CALM      30.00F HX  91
*LLANO         MOSUNNY   91  70  49 S3        30.01F HX  97
BURNET         MOSUNNY   90  65  43 E6        30.01F HX  92
*HORSESHOE BAY MOSUNNY   92  67  43 CALM      29.99F HX  95
*KERRVILLE     SUNNY     89  70  52 S6        30.02F HX  94
*FREDERICKSBRG MOSUNNY   87  64  45 E3        30.01F
*ROCKSPRINGS   SUNNY     88  61  40 SE7       30.06F
*BOERNE STAGE  MOSUNNY   86  63  45 S5        30.01F
*CASTROVILLE   MOSUNNY   91  65  43 SE6       29.99F HX  93
HONDO          SUNNY     91  70  49 SE9       29.98F HX  96
*UVALDE        SUNNY     89  69  51 SE3       29.98F HX  92
DEL RIO        SUNNY     91  68  46 SE16      29.96F HX  95
LAUGHLIN AFB   NOT AVBL
CARRIZO SPRGS  MOSUNNY   90  70  51 SE6       29.95F HX  95
*EAGLE PASS    PTCLDY    90  68  48 VRB5G13   29.96F HX  93
$$

TXZ173-191>194-202-209-217>225-228-262100-
CENTRAL AND SOUTH CENTRAL TEXAS

CITY           SKY/WX    TMP DP  RH WIND       PRES   REMARKS
GEORGETOWN     MOSUNNY   90  70  51 MISG      29.97F HX  95
AUSTIN/BERGSTM MOSUNNY   91  70  49 S3        29.96F HX  96
AUSTIN/MABRY   MOSUNNY   91  72  53 MISG      29.97F HX  98
*AUSTIN/EXEC   SUNNY     90  68  48 CALM      29.98F HX  93
*LAGO VISTA    PTSUNNY   90  68  48 N3        30.00F HX  93
SAN MARCOS     PTSUNNY   91  70  49 CALM      29.98F HX  97
NEW BRAUNFELS  MOSUNNY   92  72  51 SE3       29.95F HX  99
RANDOLPH AFB   MOSUNNY   90  73  56 VRB2      29.97F HX  98
PT SAN ANTONIO MOSUNNY   90  69  49 S6        29.96F HX  94
SAN ANTONIO    PTSUNNY   88  69  53 SE8       29.98F HX  92
STINSON FIELD  CLOUDY    89  71  55 S7        29.95F HX  95
*PLEASANTON    CLOUDY    91  68  46 S5        29.96F HX  94
*LA GRANGE     CLOUDY    88  76  68 E5        29.96R HX  99
*GIDDINGS      CLOUDY    87  73  62 SE6       30.02R HX  93
*GONZALES      CLOUDY    92  73  52 CALM      29.96F HX 100
$$

TXZ163>164-176>182-195>201-210>213-226-227-235-262100-
SOUTHEAST TEXAS

CITY           SKY/WX    TMP DP  RH WIND       PRES   REMARKS
COLLEGE STN    CLOUDY    85  74  69 E14G24    29.98F HX  92
*BRYAN         NOT AVBL
*CALDWELL      CLOUDY    88  72  58 E5        30.01R HX  94
*CROCKETT      LGT RAIN  77  75  94 E3        30.03F
*BRENHAM       CLOUDY    88  74  63 E8        29.98S HX  97
HUNTSVILLE     CLOUDY    80  70  71 S6        29.99F
CONROE         CLOUDY    88  72  58 CALM      29.98F HX  94
HOUSTON BUSH   CLOUDY    85  73  67 E6        29.97F HX  91
HOUSTON HOBBY  PTSUNNY   88  72  58 E7        29.96F HX  94
*HOUSTON SW AP PTSUNNY   88  72  60 E3        29.98F HX  94
PEARLAND       PTSUNNY   89  71  55 E7        29.99F HX  95
HOUSTON HOOKS  PTSUNNY   88  73  61 VRB5      29.98F HX  95
ELLINGTON FLD  PTSUNNY   86  73  66 E8        29.98F HX  93
SUGAR LAND     PTSUNNY   85  70  60 VRB3      29.97F THUNDER
*HOUSTON EXEC  PTSUNNY   81  72  74 S6        30.00S
*CLEVELAND MUN PTSUNNY   89  76  65 CALM      29.98F HX 100
*WHARTON       LGT RAIN  74  73  94 W7        29.98F
*COLUMBUS      NOT AVBL
*EAGLE LAKE    HVY RAIN  79  72  79 SW8       29.99R
$$

TXZ214>216-236>238-262100-
THE UPPER TEXAS COAST

CITY           SKY/WX    TMP DP  RH WIND       PRES   REMARKS
*ORANGE        CLOUDY    84  73  68 W3        29.98F HX  90
PORT ARTHUR    CLOUDY    86  75  69 E5        29.96F HX  95
GALVESTON      PTSUNNY   86  77  74 E9        29.97F HX  97
ANGLETON       PTSUNNY   90  74  59 E6        29.97F HX  99
*BAY CITY      CLOUDY    91  74  58 SE7       29.97F HX 100
PALACIOS       CLOUDY    85  75  72 N12       29.96F HX  93
$$

TXZ229>234-239>247-262100-
TEXAS COASTAL BEND AND RIO GRANDE PLAINS

CITY           SKY/WX    TMP DP  RH WIND       PRES   REMARKS
VICTORIA       CLOUDY    82  70  66 E14       29.96S THUNDER
*BEEVILLE      CLOUDY    88  78  70 E5        29.96F HX 101
ROCKPORT       PTSUNNY   93  71  48 E10       29.94F HX 100
*PORT ARANSAS  CLOUDY    91  77  64 E10       29.95F HX 103
*PORT LAVACA   LGT RAIN  83  74  73 NE10      29.98F HX  90
*INGLESIDE     PTSUNNY   91  77  63 E8        29.94F HX 103
CORPUS CHRISTI PTSUNNY   93  72  50 E10       29.94F HX 101
CORPUS NAS     NOT AVBL
*ROBSTOWN      PTSUNNY   93  74  54 NE9       29.94F HX 102
ALICE          NOT AVBL
KINGSVILLE NAS PTSUNNY   92  73  53 S8        29.91F HX 100
COTULLA        MOSUNNY   94  66  39 SE5       29.95F HX  97
*FAITH RANCH     N/A    N/A N/A N/A MISG        N/A
LAREDO         SUNNY     94  69  44 E8        29.93F HX  99
$$

TXZ248>255-262100-
DEEP SOUTH TEXAS

CITY           SKY/WX    TMP DP  RH WIND       PRES   REMARKS
BROWNSVILLE    MOSUNNY   93  73  52 E14       29.92F HX 102
PORT ISABEL    SUNNY     91  75  59 E18       29.92F HX 101
*SOUTH PADRE     N/A     86  81  84 NE10      29.94F HX 102
HARLINGEN      PTSUNNY   93  72  50 NE13      29.90F HX 101
*HEBBRONVILLE  MOSUNNY   94  65  38 E7        29.95F HX  96
MCALLEN        SUNNY    100  66  32 NE10G16   29.91F HX 104
*WESLACO       MOSUNNY  N/A N/A N/A E7        29.90F
FALFURRIAS     MOSUNNY   95  64  36 CALM      29.91F HX  96
EDINBURG       MOSUNNY   99  61  29 NE3       29.90F HX  99
*ZAPATA        SUNNY     95  61  32 E6        29.91F HX  96
$$

TXZ213>215-236>238-242>244-246-247-251-254-255-262100-
CMAN STATIONS

STATION/POSITION TIME  TEMP    WIND        PRES    WAVE
                       AIR SEA DIR/SP/G            HT/PER
                 (UTC) (F)     (DEG/KT/KT) (MB)    (FT/S)
SABINE PASS      1900   82 88  100/  5/  6 1017.0
SEA RIM ST PARK  2000   83      90/  4/  6 1015.1
NORTH JETTY/GLS  1900   83 86   80/ 12/ 13   N/A
EAGLE POINT      1900   82 86   60/  8/ 10 1015.6
MORGANS POINT    1900   83 86   80/  6/ 10 1015.6
MISSION/ARANSAS  1900   87                 1015.0
PORT ARANSAS     2000   84 87   80/ 12/ 13 1014.3
MALAQUITE BEACH  1900   83 86   50/ 10/ 11 1014.8
BAFFIN BAY       1900   87 89   80/  8/ 11 1014.2
PORT ISABEL      1900   86 81   20/  3/  6 1014.2
$$

GMZ080-GMZ150>470-262100-
OFFSHORE BUOY REPORTS

STATION/POSITION TIME  TEMP    WIND        PRES    WAVE
                       AIR SEA DIR/SP/G            HT/PER
                 (UTC) (F)     (DEG/KT/KT) (MB)    (FT/S)
20 E GALVESTON   1950   82 86   40/ 10/ 12 1014.5    2/ 5
90 E PT ARANSAS  1950   84 86   40/ 12/ 14 1014.2    3/ 6
35 NE PT MANSFLD 1950   84 87   50/ 10/ 12 1013.6    2/ 4
200 E PT ISABEL  1950   85 87   40/  8/ 10 1012.6    3/ 7
$$




USA.gov is the U.S. government's official web portal to all federal, state and local government web resources and services.